Regional Weather Roundup
Issued by NWS

Home | Current Version | Previous Version | Graphics & Text | Print | Product List | Glossary On
Versions: 1 2 3 4 5 6 7 8 9 10 11 12 13 14 15 16 17 18 19 20 21 22 23 24 25 26 27 28 29 30 31 32 33 34 35 36 37 38 39 40 41 42 43 44 45 46 47 48 49 50
000
ASUS45 KPSR 060410
RWRAZ

ARIZONA HOURLY REGIONAL WEATHER ROUNDUP
NATIONAL WEATHER SERVICE PHOENIX AZ
900 PM MST FRI FEB 05 2016

NOTE: FAIR INDICATES FEW OR NO CLOUDS BELOW 12,000 FEET WITH NO
SIGNIFICANT WEATHER AND/OR OBSTRUCTIONS TO VISIBILITY.

AZZ001>003-036-060500-
NORTHWEST ARIZONA

CITY           SKY/WX    TMP DP  RH WIND       PRES   REMARKS
BULLHEAD CITY  CLEAR     59  25  27 N18       30.40R
KINGMAN        CLEAR     38  32  79 E10       30.43R WCI  31
$$

AZZ004>008-015-016-018-060500-
NORTH CENTRAL ARIZONA

CITY           SKY/WX    TMP DP  RH WIND       PRES   REMARKS
GRAND CANYON   PTCLDY    20  12  71 CALM      30.48R
WILLIAMS       CLEAR     25   7  46 CALM      30.49R
PRESCOTT       CLEAR     38  13  35 S8        30.42R WCI  32
FLAGSTAFF      CLEAR     26  12  55 E10       30.44R WCI  16
PAYSON         CLEAR     37  12  35 NE9       30.41R WCI  31
PAGE           CLEAR     33  22  63 CALM      30.51S
$$

AZZ009>014-017-060500-
NORTHEAST ARIZONA

CITY           SKY/WX    TMP DP  RH WIND       PRES   REMARKS
WINSLOW        CLEAR     26  16  65 SW7       30.50R WCI  18
SAINT JOHNS    CLEAR     25  16  68 W3        30.46R
WINDOW ROCK    CLEAR     23   0  36 N3        30.46R
SHOW LOW       CLEAR     25  14  63 CALM      30.48R
$$

AZZ023-060500-
GREATER PHOENIX AREA

CITY           SKY/WX    TMP DP  RH WIND       PRES   REMARKS
PHOENIX        CLEAR     62  12  14 VRB3      30.31R
BUCKEYE        CLEAR     52  18  25 N10       30.33S
LUKE AFB       CLEAR     58  15  18 N15       30.31R
DEER VALLEY    CLEAR     54  15  21 N9        30.32R
SCOTTSDALE     CLEAR     58  11  15 N10       30.34R
CHANDLER       CLEAR     54  18  24 N9        30.32R
$$

AZZ027-028-060500-
SOUTHWEST MARICOPA COUNTY AND PINAL COUNTY

CITY           SKY/WX    TMP DP  RH WIND       PRES   REMARKS
CASA GRANDE    CLEAR     52  16  24 N9        30.31R
GILA BEND      FAIR      50  25  37 CALM      30.30R
$$

AZZ503-504-507>509-060500-
SOUTHEAST ARIZONA

CITY           SKY/WX    TMP DP  RH WIND       PRES   REMARKS
TUCSON         CLEAR     50  17  27 SW8       30.32R
DAVIS-MONTHAN  CLEAR     47  19  32 SW6       30.30R
NOGALES        CLEAR     45  11  25 NE8       30.31R
SIERRA VISTA   CLEAR     42   9  25 S12       30.35R
DOUGLAS        CLEAR     44  11  26 E12       30.34R
SAFFORD        CLEAR     40  13  33 E6        30.34R
$$

AZZ020-021-025-026-031-060500-
SOUTHWEST ARIZONA

CITY           SKY/WX    TMP DP  RH WIND       PRES   REMARKS
YUMA           CLEAR     60  21  22 N6        30.32R
$$

CAZ031-033-041-043-047-048-061-060500-
SOUTHERN CALIFORNIA

CITY           SKY/WX    TMP DP  RH WIND       PRES   REMARKS
DOWNTOWN L.A.  CLEAR     64  36  35 CALM      30.26R
L.A. AIRPORT   CLEAR     68  23  18 N9        30.27R
SAN DIEGO      CLEAR     63  49  60 CALM      30.26S
BURBANK        CLEAR     62  21  20 CALM      30.28R
ONTARIO        CLEAR     62  18  18 E9        30.28S
RIVERSIDE      CLEAR     63  18  17 NE5       30.31S
PALM SPRINGS   CLEAR     66  22  18 NW7       30.38R
EL CENTRO NAS  CLEAR     54  23  30 W6        30.36R
IMPERIAL       CLEAR     54  28  36 NW6       30.34R
BLYTHE         CLEAR     57  23  26 N10       30.35R
NEEDLES        CLEAR     59  23  25 N16       30.39R
$$

NVZ020-UTZ003-060500-
SOUTHERN NEVADA-UTAH

CITY           SKY/WX    TMP DP  RH WIND       PRES   REMARKS
LAS VEGAS      CLEAR     53  24  32 NE3       30.42R
SALT LAKE CITY PTCLDY    29  22  75 SE6       30.54R WCI  23
$$

NMZ009-TXZ055-060500-
NEW MEXICO-WEST TEXAS

CITY           SKY/WX    TMP DP  RH WIND       PRES   REMARKS
ALBUQUERQUE    CLEAR     34  12  40 N16G23    30.44R WCI  24
EL PASO        CLEAR     40   2  20 N8        30.40R WCI  34
$$


........................KEY........................
SKY/WX - SKY CONDITION/WEATHER
TMP    - TEMPERATURE IN FAHRENHEIT
DP     - DEW POINT IN FAHRENHEIT
RH     - RELATIVE HUMIDITY IN PERCENT
WIND   - DIRECTION AND SPEED IN MILES PER HOUR (MPH)
VRB    - VARIABLE WIND DIRECTION
PRES   - MEAN SEA LEVEL PRESSURE IN INCHES OF MERCURY
         F - FALLING PRESSURE   R - RISING PRESSURE
         S - STEADY PRESSURE
VSB    - VISIBILITY IN MILES
HX     - HEAT INDEX IN FAHRENHEIT
WCI    - WIND CHILL INDEX IN FAHRENHEIT
TC     - TEMPERATURE IN CELSIUS WHICH IS ALSO KNOWN AS
         TEMPERATURE IN CENTIGRADE
AFB    - AIR FORCE BASE
         LUKE AFB IS LUKE AIR FORCE BASE
         DAVIS-MONTHAN IS DAVIS-MONTHAN AIR FORCE BASE
NAS    - NAVAL AIR STATION
         EL CENTRO NAS IS EL CENTRO NAVAL AIR STATION
N/A    - NOT AVAILABLE




USA.gov is the U.S. government's official web portal to all federal, state and local government web resources and services.